GS63A EGJA-LFRU

Flight info

Callsign GS63A
Flight time 0h 49m
Altitude 4000
Route ANLEV
Aircraft DHC6/L-SDFGR/C

Departure

Time 2026-04-14 16:36
Airport Alderney Airport (EGJA)

Arrival

Time 2026-04-14 17:26
Airport Morlaix-Ploujean Airport (LFRU)
Time Latitude Longitude Altitude Speed Heading
2026-04-14 16:25 49.70842 -2.21413 298 ft 0 kts 256°
2026-04-14 16:33 49.70842 -2.21414 298 ft 0 kts 256°
2026-04-14 16:33 49.70824 -2.21446 298 ft 6 kts 224°
2026-04-14 16:34 49.70791 -2.21506 298 ft 8 kts 246°
2026-04-14 16:34 49.70749 -2.21577 298 ft 9 kts 181°
2026-04-14 16:34 49.70687 -2.21537 298 ft 9 kts 163°
2026-04-14 16:34 49.70657 -2.21566 298 ft 0 kts 257°
2026-04-14 16:35 49.70639 -2.21723 298 ft 53 kts 252°
2026-04-14 16:36 49.70723 -2.22512 463 ft 88 kts 279°
2026-04-14 16:36 49.70845 -2.23526 700 ft 108 kts 260°
2026-04-14 16:36 49.70767 -2.24530 1294 ft 89 kts 242°
2026-04-14 16:36 49.70391 -2.25071 1768 ft 81 kts 199°
2026-04-14 16:37 49.69883 -2.25122 2160 ft 84 kts 185°
2026-04-14 16:37 49.69226 -2.25096 2672 ft 85 kts 184°
2026-04-14 16:37 49.68642 -2.25072 3101 ft 87 kts 184°
2026-04-14 16:37 49.68051 -2.25048 3519 ft 88 kts 184°
2026-04-14 16:38 49.67520 -2.25059 3883 ft 89 kts 189°
2026-04-14 16:38 49.66843 -2.25243 4001 ft 117 kts 198°
2026-04-14 16:38 49.66019 -2.25660 4011 ft 139 kts 203°
2026-04-14 16:38 49.65141 -2.26241 4008 ft 145 kts 206°
2026-04-14 16:39 49.64250 -2.26914 4008 ft 148 kts 208°
2026-04-14 16:39 49.63350 -2.27636 4007 ft 150 kts 209°
2026-04-14 16:39 49.62463 -2.28368 4008 ft 151 kts 209°
2026-04-14 16:39 49.61563 -2.29116 4008 ft 151 kts 210°
2026-04-14 16:40 49.60647 -2.29884 4007 ft 151 kts 210°
2026-04-14 16:40 49.59743 -2.30649 4004 ft 151 kts 211°
2026-04-14 16:40 49.59156 -2.31868 4001 ft 153 kts 250°
2026-04-14 16:40 49.58860 -2.33390 3999 ft 151 kts 237°
2026-04-14 16:41 49.58034 -2.34251 4006 ft 152 kts 194°
2026-04-14 16:41 49.57033 -2.34317 4009 ft 154 kts 182°
2026-04-14 16:41 49.55996 -2.34179 4001 ft 158 kts 165°
2026-04-14 16:41 49.55059 -2.33336 4008 ft 160 kts 153°
2026-04-14 16:42 49.54044 -2.33065 3998 ft 153 kts 195°
2026-04-14 16:42 49.53232 -2.33956 4002 ft 151 kts 232°
2026-04-14 16:42 49.52660 -2.35294 4007 ft 151 kts 236°
2026-04-14 16:42 49.52005 -2.36516 4008 ft 151 kts 224°
2026-04-14 16:43 49.51189 -2.37536 4008 ft 151 kts 216°
2026-04-14 16:43 49.50244 -2.37858 4004 ft 156 kts 175°
2026-04-14 16:43 49.49288 -2.37127 4008 ft 161 kts 151°
2026-04-14 16:43 49.48356 -2.36135 4007 ft 162 kts 150°
2026-04-14 16:44 49.47447 -2.35145 4006 ft 162 kts 149°
2026-04-14 16:44 49.46465 -2.34578 3997 ft 155 kts 184°
2026-04-14 16:44 49.45568 -2.35183 3997 ft 151 kts 225°
2026-04-14 16:45 49.44416 -2.37841 4006 ft 151 kts 237°
2026-04-14 16:45 49.43869 -2.39194 4006 ft 152 kts 237°
2026-04-14 16:45 49.43312 -2.40575 4005 ft 152 kts 237°
2026-04-14 16:45 49.42763 -2.41935 4006 ft 152 kts 237°
2026-04-14 16:46 49.42201 -2.43326 4008 ft 152 kts 237°
2026-04-14 16:46 49.41636 -2.44699 4006 ft 152 kts 234°
2026-04-14 16:46 49.40932 -2.45867 4007 ft 152 kts 221°
2026-04-14 16:46 49.40110 -2.46832 4004 ft 152 kts 216°
2026-04-14 16:47 49.39218 -2.47704 4003 ft 152 kts 212°
2026-04-14 16:47 49.38314 -2.48512 4003 ft 152 kts 211°
2026-04-14 16:47 49.37409 -2.49288 4004 ft 152 kts 210°
2026-04-14 16:47 49.36509 -2.50046 4003 ft 152 kts 210°
2026-04-14 16:48 49.35604 -2.50802 4003 ft 152 kts 210°
2026-04-14 16:48 49.34684 -2.51567 4005 ft 152 kts 210°
2026-04-14 16:48 49.33767 -2.52330 4004 ft 152 kts 210°
2026-04-14 16:48 49.32844 -2.53096 4005 ft 152 kts 210°
2026-04-14 16:49 49.31920 -2.53862 4005 ft 152 kts 210°
2026-04-14 16:49 49.30988 -2.54635 4003 ft 152 kts 210°
2026-04-14 16:49 49.30074 -2.55393 4005 ft 152 kts 210°
2026-04-14 16:49 49.29155 -2.56153 4005 ft 152 kts 209°
2026-04-14 16:50 49.28222 -2.56925 4004 ft 152 kts 210°
2026-04-14 16:50 49.27291 -2.57692 4004 ft 152 kts 210°
2026-04-14 16:50 49.26380 -2.58444 4008 ft 152 kts 210°
2026-04-14 16:50 49.25473 -2.59192 4001 ft 152 kts 210°
2026-04-14 16:51 49.24582 -2.59927 4006 ft 152 kts 210°
2026-04-14 16:51 49.23663 -2.60684 4002 ft 152 kts 210°
2026-04-14 16:51 49.22751 -2.61438 4003 ft 152 kts 210°
2026-04-14 16:51 49.21838 -2.62191 4007 ft 153 kts 210°
2026-04-14 16:52 49.20928 -2.62942 4011 ft 153 kts 210°
2026-04-14 16:52 49.20003 -2.63704 4007 ft 153 kts 210°
2026-04-14 16:52 49.19081 -2.64465 4001 ft 153 kts 210°
2026-04-14 16:52 49.18157 -2.65225 4006 ft 153 kts 209°
2026-04-14 16:53 49.17246 -2.65976 4007 ft 153 kts 209°
2026-04-14 16:53 49.16308 -2.66748 4000 ft 152 kts 209°
2026-04-14 16:53 49.15398 -2.67497 4007 ft 152 kts 209°
2026-04-14 16:53 49.14490 -2.68244 4007 ft 153 kts 209°
2026-04-14 16:54 49.13589 -2.68985 4006 ft 153 kts 209°
2026-04-14 16:54 49.12658 -2.69750 4001 ft 153 kts 209°
2026-04-14 16:54 49.11735 -2.70508 4002 ft 153 kts 209°
2026-04-14 16:54 49.10829 -2.71251 4006 ft 153 kts 209°
2026-04-14 16:55 49.09933 -2.71987 4006 ft 153 kts 210°
2026-04-14 16:55 49.08999 -2.72754 4004 ft 153 kts 209°
2026-04-14 16:55 49.08084 -2.73505 4003 ft 154 kts 209°
2026-04-14 16:55 49.07161 -2.74261 4006 ft 154 kts 209°
2026-04-14 16:56 49.06258 -2.75002 4006 ft 154 kts 209°
2026-04-14 16:56 49.05327 -2.75765 4006 ft 154 kts 209°
2026-04-14 16:56 49.04395 -2.76527 4005 ft 154 kts 209°
2026-04-14 16:56 49.03470 -2.77284 4003 ft 153 kts 209°
2026-04-14 16:57 49.02540 -2.78045 4004 ft 153 kts 209°
2026-04-14 16:57 49.01600 -2.78813 4003 ft 153 kts 209°
2026-04-14 16:57 49.00674 -2.79570 4003 ft 153 kts 209°
2026-04-14 16:57 48.99735 -2.80338 4003 ft 153 kts 209°
2026-04-14 16:58 48.98806 -2.81097 4003 ft 153 kts 208°
2026-04-14 16:58 48.97871 -2.81860 4003 ft 153 kts 209°
2026-04-14 16:58 48.96936 -2.82622 4004 ft 153 kts 209°
2026-04-14 16:58 48.95999 -2.83387 4010 ft 154 kts 209°
2026-04-14 16:59 48.95068 -2.84146 4002 ft 154 kts 209°
2026-04-14 16:59 48.94127 -2.84912 4004 ft 154 kts 209°
2026-04-14 16:59 48.93189 -2.85677 4004 ft 154 kts 209°
2026-04-14 16:59 48.92261 -2.86433 4005 ft 154 kts 209°
2026-04-14 17:00 48.91338 -2.87184 4002 ft 154 kts 209°
2026-04-14 17:00 48.90391 -2.87955 4005 ft 154 kts 209°
2026-04-14 17:00 48.89452 -2.88718 4008 ft 154 kts 209°
2026-04-14 17:00 48.88501 -2.89491 4011 ft 154 kts 209°
2026-04-14 17:01 48.87574 -2.90244 3955 ft 151 kts 208°
2026-04-14 17:01 48.86650 -2.90994 3752 ft 151 kts 208°
2026-04-14 17:01 48.85723 -2.91747 3529 ft 153 kts 208°
2026-04-14 17:01 48.84808 -2.92490 3354 ft 151 kts 208°
2026-04-14 17:02 48.83913 -2.93216 3157 ft 151 kts 208°
2026-04-14 17:02 48.83002 -2.93953 3027 ft 147 kts 208°
2026-04-14 17:02 48.82120 -2.94667 3010 ft 140 kts 209°
2026-04-14 17:02 48.81283 -2.95346 3008 ft 134 kts 209°
2026-04-14 17:03 48.80487 -2.95990 3010 ft 132 kts 210°
2026-04-14 17:03 48.79682 -2.96643 3009 ft 130 kts 209°
2026-04-14 17:03 48.78898 -2.97277 3010 ft 129 kts 209°
2026-04-14 17:03 48.78102 -2.97922 3009 ft 129 kts 209°
2026-04-14 17:04 48.77310 -2.98563 3008 ft 129 kts 209°
2026-04-14 17:04 48.76527 -2.99195 3008 ft 128 kts 209°
2026-04-14 17:04 48.75749 -2.99823 3008 ft 127 kts 209°
2026-04-14 17:04 48.74968 -3.00454 3008 ft 127 kts 209°
2026-04-14 17:05 48.74187 -3.01086 3009 ft 127 kts 209°
2026-04-14 17:05 48.73415 -3.01709 3008 ft 126 kts 208°
2026-04-14 17:05 48.72632 -3.02341 3010 ft 126 kts 208°
2026-04-14 17:05 48.71862 -3.02961 3008 ft 126 kts 209°
2026-04-14 17:06 48.71093 -3.03581 3007 ft 126 kts 209°
2026-04-14 17:06 48.70320 -3.04204 3010 ft 126 kts 209°
2026-04-14 17:06 48.69691 -3.05092 3002 ft 127 kts 244°
2026-04-14 17:06 48.69610 -3.06436 3004 ft 130 kts 270°
2026-04-14 17:07 48.69708 -3.07801 3007 ft 131 kts 272°
2026-04-14 17:07 48.69819 -3.09162 3006 ft 131 kts 272°
2026-04-14 17:07 48.69937 -3.10521 3006 ft 132 kts 273°
2026-04-14 17:07 48.70063 -3.11904 3005 ft 132 kts 273°
2026-04-14 17:08 48.70193 -3.13266 3003 ft 132 kts 274°
2026-04-14 17:08 48.70327 -3.14645 3002 ft 132 kts 274°
2026-04-14 17:08 48.70464 -3.16024 3002 ft 132 kts 274°
2026-04-14 17:08 48.70599 -3.17390 2998 ft 132 kts 274°
2026-04-14 17:09 48.70735 -3.18763 2998 ft 132 kts 274°
2026-04-14 17:09 48.70871 -3.20134 3002 ft 132 kts 273°
2026-04-14 17:09 48.71008 -3.21505 3003 ft 132 kts 273°
2026-04-14 17:09 48.71144 -3.22888 3002 ft 132 kts 274°
2026-04-14 17:10 48.71278 -3.24244 3000 ft 132 kts 273°
2026-04-14 17:10 48.71408 -3.25570 3002 ft 132 kts 273°
2026-04-14 17:10 48.71532 -3.26834 3001 ft 131 kts 274°
2026-04-14 17:10 48.71666 -3.28185 3001 ft 131 kts 274°
2026-04-14 17:11 48.71801 -3.29536 3006 ft 131 kts 274°
2026-04-14 17:11 48.71910 -3.30902 3000 ft 130 kts 267°
2026-04-14 17:11 48.71890 -3.32263 3005 ft 129 kts 264°
2026-04-14 17:11 48.71858 -3.33598 3010 ft 129 kts 263°
2026-04-14 17:12 48.71824 -3.34953 3007 ft 130 kts 264°
2026-04-14 17:12 48.71791 -3.36314 3005 ft 130 kts 264°
2026-04-14 17:12 48.71759 -3.37659 3005 ft 130 kts 264°
2026-04-14 17:12 48.71727 -3.38983 3000 ft 129 kts 263°
2026-04-14 17:13 48.71693 -3.40338 3006 ft 129 kts 264°
2026-04-14 17:13 48.71659 -3.41707 3008 ft 129 kts 264°
2026-04-14 17:13 48.71626 -3.43045 3008 ft 129 kts 264°
2026-04-14 17:13 48.71593 -3.44408 3006 ft 129 kts 264°
2026-04-14 17:14 48.71559 -3.45763 3009 ft 129 kts 263°
2026-04-14 17:14 48.71525 -3.47118 3007 ft 129 kts 263°
2026-04-14 17:14 48.71491 -3.48483 3008 ft 129 kts 264°
2026-04-14 17:14 48.71457 -3.49840 3008 ft 129 kts 264°
2026-04-14 17:15 48.71652 -3.51163 3010 ft 135 kts 295°
2026-04-14 17:15 48.72218 -3.52331 3008 ft 138 kts 303°
2026-04-14 17:15 48.72830 -3.53460 3002 ft 138 kts 304°
2026-04-14 17:15 48.73440 -3.54568 2998 ft 138 kts 304°
2026-04-14 17:16 48.74062 -3.55692 3002 ft 138 kts 304°
2026-04-14 17:16 48.74672 -3.56791 3005 ft 138 kts 304°
2026-04-14 17:16 48.75263 -3.57851 3001 ft 128 kts 303°
2026-04-14 17:16 48.75803 -3.58821 3001 ft 118 kts 303°
2026-04-14 17:17 48.76231 -3.59770 3000 ft 105 kts 279°
2026-04-14 17:17 48.76153 -3.60726 3003 ft 89 kts 238°
2026-04-14 17:17 48.75822 -3.61412 3001 ft 80 kts 229°
2026-04-14 17:17 48.75473 -3.61996 3012 ft 79 kts 226°
2026-04-14 17:18 48.75081 -3.62595 3006 ft 83 kts 225°
2026-04-14 17:18 48.74652 -3.63210 3005 ft 86 kts 223°
2026-04-14 17:18 48.74206 -3.63823 3004 ft 88 kts 223°
2026-04-14 17:18 48.73741 -3.64439 3003 ft 90 kts 221°
2026-04-14 17:19 48.73266 -3.65062 3002 ft 92 kts 220°
2026-04-14 17:19 48.72784 -3.65690 3003 ft 93 kts 220°
2026-04-14 17:19 48.72304 -3.66315 3002 ft 90 kts 221°
2026-04-14 17:19 48.71837 -3.66919 3000 ft 86 kts 220°
2026-04-14 17:20 48.71379 -3.67505 2910 ft 86 kts 221°
2026-04-14 17:20 48.70921 -3.68094 2796 ft 87 kts 221°
2026-04-14 17:20 48.70462 -3.68679 2685 ft 86 kts 221°
2026-04-14 17:20 48.70005 -3.69263 2546 ft 86 kts 219°
2026-04-14 17:21 48.69545 -3.69849 2406 ft 87 kts 219°
2026-04-14 17:21 48.69087 -3.70435 2276 ft 86 kts 220°
2026-04-14 17:21 48.68628 -3.71020 2134 ft 86 kts 219°
2026-04-14 17:21 48.68177 -3.71594 2038 ft 86 kts 220°
2026-04-14 17:22 48.67720 -3.72175 1948 ft 85 kts 221°
2026-04-14 17:22 48.67260 -3.72766 1860 ft 85 kts 219°
2026-04-14 17:22 48.66811 -3.73335 1767 ft 85 kts 219°
2026-04-14 17:22 48.66354 -3.73915 1665 ft 86 kts 220°
2026-04-14 17:23 48.65896 -3.74499 1569 ft 86 kts 220°
2026-04-14 17:23 48.65446 -3.75075 1476 ft 86 kts 219°
2026-04-14 17:23 48.64985 -3.75662 1370 ft 86 kts 219°
2026-04-14 17:23 48.64521 -3.76250 1272 ft 87 kts 217°
2026-04-14 17:24 48.64061 -3.76837 1175 ft 88 kts 219°
2026-04-14 17:24 48.63589 -3.77436 1080 ft 88 kts 218°
2026-04-14 17:24 48.63123 -3.78026 945 ft 88 kts 217°
2026-04-14 17:24 48.62656 -3.78621 800 ft 87 kts 219°
2026-04-14 17:25 48.62180 -3.79225 670 ft 86 kts 218°
2026-04-14 17:25 48.61714 -3.79820 494 ft 92 kts 216°
2026-04-14 17:25 48.61255 -3.80400 469 ft 75 kts 219°
2026-04-14 17:25 48.60873 -3.80886 302 ft 67 kts 216°
2026-04-14 17:26 48.60609 -3.81227 278 ft 34 kts 218°
2026-04-14 17:26 48.60488 -3.81379 279 ft 13 kts 220°
2026-04-14 17:26 48.60438 -3.81442 279 ft 7 kts 219°
2026-04-14 17:26 48.60386 -3.81503 279 ft 14 kts 217°
2026-04-14 17:27 48.60284 -3.81629 277 ft 22 kts 218°
2026-04-14 17:27 48.60200 -3.81732 276 ft 7 kts 220°
2026-04-14 17:27 48.60124 -3.81741 275 ft 17 kts 140°
2026-04-14 17:27 48.60069 -3.81649 276 ft 2 kts 131°
2026-04-14 17:28 48.60055 -3.81629 277 ft 4 kts 138°
2026-04-14 17:28 48.60021 -3.81594 277 ft 4 kts 139°
2026-04-14 17:28 48.60008 -3.81573 277 ft 2 kts 131°
2026-04-14 17:28 48.60004 -3.81558 277 ft 0 kts 101°